Regional Weather Roundup
Issued by NWS Cleveland, OH

Home | Current Version | Previous Version | Text Only | Print | Product List | Glossary Off
Versions: 1 2 3 4 5 6 7 8 9 10 11 12 13 14 15 16 17 18 19 20 21 22 23 24 25 26 27 28 29 30 31 32 33 34 35 36 37 38 39 40 41 42 43 44 45 46 47 48 49 50

000
ASUS41 KCLE 230702
RWRCLE
OHIO REGIONAL WEATHER ROUNDUP
NATIONAL WEATHER SERVICE CLEVELAND, OH
200 AM EST THU NOV 23 2017

NOTE: "FAIR" INDICATES FEW OR NO CLOUDS BELOW 12,000 FEET WITH NO
SIGNIFICANT WEATHER AND/OR OBSTRUCTIONS TO VISIBILITY.

OHZ001>008-015>018-024>027-034-035-043-044-230800-
   NORTHWEST OHIO

CITY           SKY/WX    TMP DP  RH WIND       PRES   REMARKS
DEFIANCE       MOCLDY    28  22  78 S6        30.19F WCI  22
FINDLAY        CLOUDY    29  22  75 S6        30.19F WCI  23
TOLEDO EXPRESS CLOUDY    30  23  75 S6        30.19F WCI  24
TOLEDO EXEC    PTCLDY    29  22  75 SW7       30.21S WCI  22
LIMA           CLOUDY    26  22  84 S6        30.19F WCI  19
$$

OHZ009>014-019>023-028>033-038-089-230800-
   NORTHEAST OHIO

CITY           SKY/WX    TMP DP  RH WIND       PRES   REMARKS
CLE-HOPKINS    CLOUDY    27  18  69 SW6       30.22F WCI  20
CLE-LAKEFRONT  CLOUDY    31  18  58 S13       30.20S WCI  21
CUY CO. ARPT   NOT AVBL
LORAIN-ELYRIA  CLOUDY    24  15  68 S5        30.21S WCI  18
ASHTABULA      CLOUDY    31  23  72 SW6       30.19S WCI  25
AKRON-CANTON   CLOUDY    27  17  66 SW3       30.18F
WOOSTER        CLOUDY    22  19  89 CALM      30.19F
MANSFIELD      CLOUDY    22  19  89 S6        30.17F WCI  14
YOUNGSTOWN     CLOUDY    29  21  72 W5        30.17F WCI  24
$$

OHZ042-051>053-060>062-070>072-077>081-230800-
  SOUTHWEST OHIO

CITY           SKY/WX    TMP DP  RH WIND       PRES   REMARKS
CINC-COVINGTON CLOUDY    27  24  89 CALM      30.20F
CINC-LUNKEN    CLOUDY    24  23  96 CALM      30.24F FOG
HAMILTON       CLOUDY    24  22  91 CALM      30.23F
DAYTON         CLOUDY    27  22  81 S5        30.20F WCI  22
WRIGHT-PAT AFB CLOUDY    25  21  84 CALM      30.21S
DAYTON GENERAL CLOUDY    25  20  81 CALM      30.19F
WILMINGTON     CLOUDY    22  21  96 CALM      30.20S
$$

OHZ036-037-039>041-045>050-054>059-063>069-073>076-082>088-230800-
  CENTRAL AND SOUTHEAST OHIO

CITY           SKY/WX    TMP DP  RH WIND       PRES   REMARKS
COLUMBUS       CLOUDY    26  22  84 CALM      30.21S
OSU AIRPORT    CLOUDY    23  22  96 CALM      30.20S
BOLTON FIELD   CLOUDY    21  20  94 CALM      30.21S
RICKENBACK AFB CLOUDY    23  20  88 CALM      30.21S
NEWARK         CLOUDY    23  19  85 CALM      30.19F
MARION         CLOUDY    22  19  89 SW3       30.19F
LANCASTER      CLOUDY    20  18  92 CALM      30.20F
ZANESVILLE     CLOUDY    23  18  81 CALM      30.19F
NEW PHILLY     NOT AVBL
$$



USA.gov is the U.S. government's official web portal to all federal, state and local government web resources and services.